User: anonymous   Login
Location: Unspecified
(0.0000°N, 0.0000°E)
Time: 00:04:26
(UTC+00:00)
Language:

XW-2D - Orbit

View from above orbital plane
View from above orbital plane
View from above satellite
View from above satellite

Ground track
Ground track

The orbit data is extracted from the following two-line orbital elements,

1 40907U 15049J   18203.53190774  .00000603  00000-0  35393-4 0  9995
2 40907  97.4574 206.0698 0012664 264.8361  95.1426 15.15398699156856
Epoch (UTC): 22 July 2018 12:45:56
Eccentricity: 0.0012664
inclination: 97.4574°
perigee height: 511 km
apogee height: 528 km
right ascension of ascending node: 206.0698°
argument of perigee: 264.8361°
revolutions per day: 15.15398699
mean anomaly at epoch: 95.1426°
orbit number at epoch: 15685

The dashed part of the orbit path shows where the satellite is in the earth's shadow,  

DLR